Weather History for Manhattan, KS

Change the Weather History Date:

Sunday, January 6, 2013

  Actual Average Record
Temperature  
Mean Temperature 32 °F 28 °F  
Max Temperature 45 °F 40 °F 59 °F (2012)
Min Temperature 18 °F 16 °F -12 °F (2014)
Degree Days  
Heating Degree Days 33 37  
Month to date heating degree days 245 222  
Since 1 July heating degree days 2166 2363  
Cooling Degree Days 0 0  
Month to date cooling degree days 0 0  
Year to date cooling degree days 0 0  
Moisture  
Dew Point 21 °F    
Average Humidity 64    
Maximum Humidity 88    
Minimum Humidity 40    
Precipitation  
Precipitation 0.00 in 0.01 in 0.04 in (2005)
Month to date precipitation T 0.06  
Year to date precipitation T 0.06  
Sea Level Pressure  
Sea Level Pressure 30.34 in    
Wind  
Wind Speed 3 mph (SSW)    
Max Wind Speed 10 mph    
Max Gust Speed 14 mph    
Visibility 10 miles    
Events      
T = Trace of Precipitation, MM = Missing Value Source: NWS Daily Summary

Daily Weather History Graph

Daily Weather History Graph

Search for Another Location

Airport:

Trip Planner

Search our weather history database for the weather conditions in past years. The results will help you decide how hot, cold, wet, or windy it might be!

Date:

Astronomy

Jan. 06, 2013 Rise Set
Actual Time 7:46 AM CST 5:19 PM CST
Civil Twilight 7:16 AM CST 5:49 PM CST
Nautical Twilight 6:43 AM CST 6:22 PM CST
Astronomical Twilight 6:10 AM CST 6:54 PM CST
Moon 2:02 AM CST (1/6) 12:46 PM CST (1/6)
Length of Visible Light 10h 32m
Length of Day
9h 33m
Waning Crescent, 33% of the Moon is Illuminated
Jan 6
Waning Crescent
Jan 11
New
Jan 18
First Quarter
Jan 26
Full
Feb 3
Last Quarter

Hourly Weather History & Observations

Time (CST) Temp. Windchill Dew Point Humidity Pressure Visibility Wind Dir Wind Speed Gust Speed Precip Events Conditions
12:52 AM 30.0 °F 24.1 °F 21.0 °F 69% 30.27 in 10.0 mi WSW 5.8 mph - N/A   Clear
1:52 AM 30.0 °F 26.5 °F 19.9 °F 66% 30.30 in 10.0 mi Variable 3.5 mph - N/A   Clear
2:52 AM 28.9 °F 25.2 °F 19.9 °F 69% 30.32 in 10.0 mi Variable 3.5 mph - N/A   Clear
3:52 AM 26.1 °F - 18.0 °F 71% 30.33 in 10.0 mi Calm Calm - N/A   Clear
4:52 AM 23.0 °F - 17.1 °F 78% 30.35 in 10.0 mi Calm Calm - N/A   Clear
5:52 AM 21.9 °F - 16.0 °F 78% 30.36 in 10.0 mi Calm Calm - N/A   Clear
6:52 AM 19.9 °F - 15.1 °F 81% 30.40 in 10.0 mi Calm Calm - N/A   Clear
7:52 AM 21.9 °F 14.5 °F 16.0 °F 78% 30.41 in 10.0 mi WSW 5.8 mph - N/A   Clear
8:52 AM 24.1 °F 17.0 °F 18.0 °F 77% 30.42 in 10.0 mi SW 5.8 mph - N/A   Clear
9:52 AM 28.9 °F 25.2 °F 19.9 °F 69% 30.42 in 10.0 mi SSW 3.5 mph - N/A   Clear
10:52 AM 33.1 °F 30.0 °F 21.0 °F 61% 30.43 in 10.0 mi SSW 3.5 mph - N/A   Clear
11:52 AM 36.0 °F 33.3 °F 21.9 °F 57% 30.40 in 10.0 mi SSE 3.5 mph - N/A   Clear
12:52 PM 39.9 °F 36.7 °F 21.9 °F 49% 30.36 in 10.0 mi South 4.6 mph - N/A   Clear
1:52 PM 43.0 °F 38.2 °F 21.0 °F 42% 30.33 in 10.0 mi South 8.1 mph - N/A   Clear
2:52 PM 44.1 °F 40.1 °F 21.9 °F 42% 30.32 in 10.0 mi SSW 6.9 mph - N/A   Clear
3:52 PM 45.0 °F 40.6 °F 24.1 °F 44% 30.31 in 10.0 mi SW 8.1 mph - N/A   Clear
4:52 PM 41.0 °F 38.0 °F 25.0 °F 53% 30.31 in 10.0 mi SSW 4.6 mph - N/A   Clear
5:52 PM 36.0 °F - 25.0 °F 64% 30.32 in 10.0 mi Calm Calm - N/A   Clear
6:52 PM 28.0 °F - 23.0 °F 81% 30.32 in 10.0 mi Calm Calm - N/A   Clear
7:52 PM 28.0 °F - 21.9 °F 78% 30.31 in 10.0 mi Calm Calm - N/A   Clear
8:52 PM 25.0 °F - 21.9 °F 88% 30.29 in 10.0 mi Calm Calm - N/A   Clear
9:52 PM 26.1 °F - 21.0 °F 81% 30.28 in 10.0 mi Calm Calm - N/A   Clear
10:52 PM 32.0 °F 24.8 °F 21.9 °F 66% 30.25 in 10.0 mi SSW 8.1 mph - N/A   Clear
11:52 PM 30.0 °F 23.2 °F 21.9 °F 72% 30.24 in 10.0 mi SSW 6.9 mph - N/A   Clear